Location: Caltech
(34.1382°N, 118.1253°W)
Time: 21:05:09
(UTC-07:00)

Cosmos 1975 - Visible Passes

Search period start: 19 August 2017 00:00
Search period end: 29 August 2017 00:00
Orbit: 542 x 565 km, 82.5° (Epoch: 19 August)

Date Brightness Start Highest point End Pass type
(mag) Time Alt. Az. Time Alt. Az. Time Alt. Az.
19 Aug 5.2 21:59:01 16° NNE 21:59:01 16° NNE 21:59:50 10° NNE visible
20 Aug 5.0 21:55:37 19° NNE 21:55:37 19° NNE 21:56:47 10° NNE visible
21 Aug 4.7 21:52:10 22° NNE 21:52:10 22° NNE 21:53:43 10° N visible
22 Aug 4.4 21:48:40 28° N 21:48:40 28° N 21:50:37 10° N visible
23 Aug 4.1 21:45:06 35° N 21:45:06 35° N 21:47:31 10° N visible
24 Aug 3.6 21:41:27 47° NNW 21:41:27 47° NNW 21:44:24 10° N visible
25 Aug 3.3 21:37:42 58° NW 21:37:42 58° NW 21:41:16 10° N visible
26 Aug 3.5 21:33:48 50° WSW 21:34:13 52° W 21:38:08 10° N visible
27 Aug 3.8 21:29:43 31° SW 21:31:08 45° W 21:34:58 10° N visible
28 Aug 4.8 19:51:07 10° E 19:52:00 11° E 19:52:52 10° ENE visible
28 Aug 4.1 21:25:18 16° SW 21:28:02 39° W 21:31:48 10° N visible
